Location: D�nning
(49.2479°N, 12.8491°E)
Time: 08:16:17
(UTC+00:00)

Cosmos 2026 Rocket - Pass Details

Date: 18 September 2020
Orbit: 940 x 1000 km, 82.9° (Epoch: 24 October)

Event Time Altitude Azimuth Distance (km) Brightness Sun altitude
Rises 19:55:48 0° 349° (NNW) 3,715 7.7 -25.4°
Reaches altitude 10° 19:58:20 10° 347° (NNW) 2,768 7.0 -25.7°
Maximum altitude 20:04:40 72° 265° (W) 1,050 4.2 -26.5°
Enters shadow 20:06:54 42° 193° (SSW) 1,387 4.5 -26.8°
